This is the latest recevied weather packets stored in our database for station/object VU3OPX-13. If no packets are shown the sender has not sent any weather packets the latest 10 day(s).
| Time | Temp. | Humidity | Pressure | Rain* | Wind** | Luminosity | Snow |
|---|---|---|---|---|---|---|---|
| 1788269914 | 22.78° C | 87% | 1012 hPa | 0 mm | - | - | - |
| 1788268127 | 23.89° C | 83% | 1012 hPa | 0 mm | - | - | - |
| 1788266340 | 23.89° C | 84% | 1011 hPa | 0 mm | - | - | - |
| 1788264553 | 25.56° C | 77% | 1010 hPa | 0 mm | - | - | - |
| 1788262765 | 25° C | 77% | 1011 hPa | 0 mm | - | - | - |
| 1788260978 | 26.11° C | 72% | 1010 hPa | 0 mm | - | - | - |
| 1788259191 | 26.11° C | 71% | 1010 hPa | 0 mm | - | - | - |
| 1788257403 | 27.22° C | 68% | 1010 hPa | 0 mm | - | - | - |
| 1788255616 | 26.67° C | 68% | 1010 hPa | 0 mm | - | - | - |
| 1788253829 | 27.22° C | 67% | 1010 hPa | 0 mm | - | - | - |
| 1788252040 | 27.22° C | 67% | 1010 hPa | 0 mm | - | - | - |
| 1788250252 | 27.78° C | 67% | 1011 hPa | 0 mm | - | - | - |
| 1788248466 | 27.78° C | 66% | 1011 hPa | 0 mm | - | - | - |
| 1788246678 | 27.78° C | 68% | 1012 hPa | 0 mm | - | - | - |
| 1788244891 | 27.22° C | 68% | 1012 hPa | 0 mm | - | - | - |
| 1788243104 | 26.67° C | 69% | 1012 hPa | 0 mm | - | - | - |
| 1788241316 | 26.67° C | 69% | 1012 hPa | 0 mm | - | - | - |
| 1788239529 | 26.11° C | 73% | 1013 hPa | 0 mm | - | - | - |
| 1788237741 | 26.11° C | 72% | 1013 hPa | 0 mm | - | - | - |
| 1788235954 | 25° C | 77% | 1013 hPa | 0 mm | - | - | - |
| 1788234167 | 25° C | 77% | 1013 hPa | 0 mm | - | - | - |
| 1788232379 | 23.33° C | 84% | 1013 hPa | 0 mm | - | - | - |
| 1788230591 | 23.33° C | 84% | 1013 hPa | 0 mm | - | - | - |
| 1788228816 | 21.67° C | 92% | 1012 hPa | 0 mm | - | - | - |
| 1788227017 | 21.67° C | 92% | 1012 hPa | 0 mm | - | - | - |
* Rain latest hour (hover to see other rain measurements)
** Current wind speed in m/s (hover to see current wind gust speed)